www.pogodaiklimat.ru

Погода и климат >> Архив погоды >> Россия >> Ставропольский край >> Новоалександровск


ПОГОДА в Новоалександровске

  • Прогноз погоды в Новоалександровске
  • Монитор погоды в Новоалександровске

АРХИВ ПОГОДЫ в Новоалександровске

Время (UTC), дата Ветер
(напр.,м/с)
 
Видим.   Явления Облачность Т
(С)
Тd
(С)
f
(%)
Тe
(С)
Тes
(С)
Комфортность P
(гПа)
Po
(гПа)
Тmin
(С)
Tmax
(С)
R
(мм)
R24
(мм)
S
(см)
03 12.02 В 2 20 км ясно -0.1 -1.4 91 -4 -4 1020.4 1006.4 -0.1
06 12.02 В 2 20 км 6/0
[Ci sp]
+3.4 +0.5 81 +1 +2 1019.7 1005.9
09 12.02 ЮВ 2 20 км 8/0 2000 м
[Ac cast Ci sp]
+9.4 +1.4 57 +8 +11 1018.2 1004.7
12 12.02 В 3 20 км 9/0
[Cc]
+11.4 +0.8 48 +10 +12 1016.7 1003.3
15 12.02 В 2 20 км 9/0 2000 м
[Ac trans Cs]
+6.9 0.0 61 +5 +5 1017.5 1003.9 +11.5
18 12.02 В 2 20 км 9/0 2000 м
[Cs]
+3.5 -0.8 73 +1 +1 1019.1 1005.3
21 12.02 В 1 20 км 3/0 2000 м
[Ci fib]
+0.7 -1.9 83 -1 -1 1019.5 1005.6
00 13.02 В 1 20 км ясно -0.5 -2.8 84 -3 -3 1019.7 1005.7
03 13.02 В 1 20 км ясно -1.8 -3.8 86 -4 -4 1020.4 1006.3 -1.8
06 13.02 В 1 20 км 8/0
[Cs]
+0.6 -2.6 79 -1 +1 1021.5 1007.5 -2.0
09 13.02 В 1 20 км 9/0
[Cs]
+11.9 +0.5 45 +12 +18 1020.7 1007.3
12 13.02 СВ 1 20 км 9/0
[Cs]
+16.4 -1.9 29 +17 +20 1020.0 1006.8
15 13.02 З 2 20 км 10/0
[Cs]
+10.8 +0.6 49 +10 +10 1021.1 1007.6 +16.9
18 13.02 З 1 20 км 10/0
[Cs]
+5.1 +0.8 74 +4 +4 1022.6 1008.8
21 13.02 З 2 20 км 10/0 2000 м
[Ac As]
+4.0 +1.0 81 +1 +1 1024.4 1010.6
00 14.02 З 1 20 км 10/0 2000 м
[Ac As]
+2.6 0.0 83 +1 +1 1024.6 1010.7
03 14.02 СЗ 1 20 км 10/4 600 м
[Sc As op]
+2.3 -0.9 79 +1 +1 1025.1 1011.2 +2.3
06 14.02 С 2 20 км в посл. час крупа {ливн. осадки} 10/10 600 м
[Cb cap]
+1.6 -1.3 81 -2 -2 1026.2 1012.2 +1.5
09 14.02 СВ 3 20 км 10/3 600 м
[Cu hum Ac As]
+3.4 -2.4 66 -0 +1 1025.9 1012.0
12 14.02 СВ 3 20 км 9/8 600 м
[Sc diur, vesp Ac As]
+4.0 -2.8 61 +1 +1 1024.6 1010.8
15 14.02 В 1 20 км 9/1 600 м
[Sc diur, vesp Cs]
+2.5 -4.3 61 +1 +1 1024.8 1010.9 +4.2 0.2
18 14.02 В 2 20 км 3/0
[Ci fib]
-0.4 -5.5 68 -4 -4 1025.5 1011.4
21 14.02 СВ 3 20 км 10/10 600 м
[Sc]
-0.3 -5.7 67 -5 -5 1024.8 1010.7
00 15.02 В 2 20 км 10/10 600 м
[Sc]
-0.4 -6.0 66 -4 -4 1025.0 1011.0
03 15.02 СВ 3 20 км 10/10 600 м
[Sc]
-0.8 -5.2 72 -5 -5 1025.3 1011.2 -1.0
06 15.02 СВ 3 20 км 10/10 600 м
[Sc]
-1.0 -4.7 76 -6 -6 1026.6 1012.5 -1.1
09 15.02 В 3 20 км 9/9 600 м
[Sc]
+1.5 -4.1 66 -2 -2 1025.5 1011.5
12 15.02 СВ 3 20 км 9/9 600 м
[Sc]
+3.8 -3.6 58 +1 +1 1024.5 1010.7
15 15.02 В 2 20 км 9/9 600 м
[Sc]
+2.6 -4.5 59 0 0 1024.5 1010.6 +4.1
18 15.02 В 1 20 км 3/0 2000 м
[Ac lent]
-1.3 -5.3 74 -3 -3 1024.5 1010.4
21 15.02 штиль 0 20 км 3/0
[Ci fib]
-4.0 -7.2 78 -5 -5 1023.1 1008.9
00 16.02 штиль 0 20 км 3/0
[Ci fib]
-5.5 -7.2 88 -6 -6 1022.4 1008.1
03 16.02 штиль 0 20 км 4/0
[Ci fib]
-6.7 -8.2 89 -8 -8 1021.9 1007.6 -6.9
06 16.02 З 1 20 км 9/0 2000 м
[Cc]
-3.2 -5.4 85 -5 -3 1021.8 1007.6
09 16.02 З 4 20 км 10/8 600 м
[Sc Cs]
+1.4 -7.4 52 -3 -2 1021.1 1007.1
12 16.02 З 4
{10}
20 км 10/10 600 м
[Sc]
+1.6 -3.5 69 -3 -3 1020.3 1006.4
15 16.02 З 3 20 км 10/10 600 м
[Sc]
+1.4 -2.3 76 -3 -3 1020.6 1006.7 +2.8
18 16.02 З 3 20 км 10/10 600 м
[Sc]
+1.4 -1.2 83 -3 -3 1021.4 1007.4
21 16.02 З 3 20 км 10/10 600 м
[Sc]
+1.0 -0.5 90 -4 -4 1021.1 1007.2
00 17.02 З 3 10 км слаб. ливневой дождь 10/10 600 м
[Cb cap]
+1.2 0.0 92 -3 -3 1020.5 1006.5
03 17.02 З 3 20 км в посл. час ливневой дождь 10/10 600 м
[Cb cap]
+1.3 0.0 91 -3 -3 1020.4 1006.5 +1.0 0.6
06 17.02 З 3 20 км {ливн. осадки} 10/10 600 м
[Sc]
+2.1 +0.2 87 -2 -2 1020.3 1006.5
09 17.02 З 6-13
{14}
20 км 10/10 600 м
[Sc]
+2.8 +0.3 84 -3 -3 1019.3 1005.5
12 17.02 З 6-13
{15}
20 км 10/10 600 м
[Cb cap]
+4.7 +1.8 81 -1 -1 1016.5 1002.8
15 17.02 З 4
{15}
20 км 3/0 2000 м
[Ac cast]
+6.1 +2.2 76 +2 +2 1014.3 1000.7 +6.7
18 17.02 З 5-12
{13}
20 км 3/0 2000 м
[Ac cast Ci fib]
+5.7 +1.5 74 +1 +1 1013.0 999.4
21 17.02 З 6-14
{16}
20 км 9/9 600 м
[Sc]
+6.6 +2.1 73 +2 +2 1011.4 997.9
00 18.02 З 8-17
{18}
20 км 10/10 600 м
[Sc]
+7.1 +2.1 70 +2 +2 1010.3 996.8
03 18.02 З 6-14
{18}
10 км слаб. ливневой дождь 10/10 600 м
[Cb cap]
+6.0 +3.6 85 +1 +1 1009.9 996.4 +5.6 0.3
06 18.02 З 6-12
{14}
20 км {ливн. осадки} 10/10 600 м
[Cb cap]
+4.8 +0.7 75 -0 -0 1011.7 998.1 +4.7
09 18.02 З 6-11
{14}
20 км 8/5 600 м
[Cu med, cong Ci fib]
+5.2 -2.9 56 +1 +2 1013.3 999.6
12 18.02 СЗ 5-11
{13}
20 км 6/4 600 м
[Cu hum Ci fib]
+6.7 -6.2 39 +3 +4 1013.1 999.5
15 18.02 СЗ 2
{11}
20 км 3/1 600 м
[Sc diur, vesp Ci fib]
+3.1 -8.0 44 +1 +1 1015.3 1001.5 +6.9 0.4
18 18.02 З 1 20 км ясно -0.9 -8.0 59 -2 -2 1018.7 1004.7
21 18.02 З 1 20 км 3/0
[Ci sp]
-2.8 -8.3 66 -5 -5 1020.5 1006.4
00 19.02 З 1 20 км 3/0
[Ci sp]
-5.1 -8.5 77 -7 -7 1021.9 1007.7

 

Местоположение метеостанции Новоалександровск (Ставропольский край, Россия): широта 45.50 долгота 41.20 высота над уровнем моря 110 м.

В архиве по умолчанию представлена погода в Новоалександровске за последнюю неделю. Архивные данные за месяц целиком и за предыдущие месяцы, начиная с января 2011 года, Вы можете получить, выбрав интересующий диапазон дат из раскрывающегося списка и нажав кнопку "Ввод!".


*Определитесь, кто Вы:
робот инопланетянин человек

Внимание! Время в таблицах - всемирное. Для получения местного времени необходимо прибавить поправку, которая равна 3 ч.

Смотрите также архив погоды в соседних городах и на ближайших метеорологических станциях:

Погода в Изобильном (Ставропольский край, Россия) (42 км)
Погода в Красногвардейском (Ставропольский край, Россия) (43 км)
Погода в Кропоткине (Краснодарский край, Россия) (50 км)
Погода в Армавире (Краснодарский край, Россия) (58 км)
Погода в Белой Глине (Краснодарский край, Россия) (69 км)
Погода в Ставрополе (Ставропольский край, Россия) (81 км)
Погода в Городовиковске (Калмыкия, Россия) (87 км)
Погода в Тихорецке (Краснодарский край, Россия) (95 км)
Погода в Дондуковской (Адыгея, Россия) (98 км)
Погода в Лабинске (Краснодарский край, Россия) (99 км)

Пояснения к столбцам:

Ветер - указаны скорость ветра в м/с - средняя за 10 мин, порывы в срок и между сроками (в фигурных скобках) и направление, откуда дует ветер: С - северный, СВ - северо-восточный, В - восточный, ЮВ - юго-восточный, Ю - южный, ЮЗ - юго-западный, З - западный, СЗ - северо-западный.
Видимость - горизонтальная дальность видимости в метрах или километрах. При видимости от 1 до 10 км при отсутствии осадков обычно наблюдается дымка, при ухудшении видимости до 1 км и менее - туман. В сухую погоду видимость может ухудшаться дымом, пылью или мглою.
Явления - указаны атмосферные явления, наблюдавшиеся в срок или в последний час перед сроком; фигурными скобками обозначены явления, наблюдавшиеся между сроками (за 1-3 часа до срока); квадратными скобками обозначены град или гололедные отложения с указанием их диаметра в мм.
Облачность - указаны через наклонную черту общая и нижняя облачность в баллах и высота нижней границы облаков в метрах; квадратными скобками обозначены формы облаков: Ci - перистые, Cs - перисто-слоистые, Cc - перисто-кучевые, Ac - высококучевые, As - высокослоистые, Sc - слоисто-кучевые, Ns - слоисто-дождевые, Cu - кучевые, Cb - кучево-дождевые. Подробнее классификацию облаков см. в Атласе облаков (PDF).
T - Температура воздуха - температура, измеренная на высоте 2 м над землей.
Td - Температура точки росы - температура, при понижении до которой содержащийся в воздухе водяной пар достигнет насыщения.
f - Относительная влажность воздуха - влажноcть воздуха, измеренная на высоте 2 м над землей.
Te - Эффективная температура - температура, которую ощущает одетый по сезону человек в тени. Характеристика душности погоды. При расчете учитывается влияние влажности воздуха и скорости ветра на теплоощущения человека.
Tes - Эффективная температура на солнце - температура, которую ощущает человек, с поправкой на солнечный нагрев. Характеристика знойности погоды. Зависит от высоты солнца над горизонтом, облачности и скорости ветра. Ночью, в пасмурную погоду, а также при ветре 12 м/с и более поправка равна нулю.
P - Атмосферное давление - приведенное к уровню моря атмосферное давление.
Po - Атмосферное давление - измеренное на уровне метеостанции атмосферное давление.
Tmin - Минимальная температура - минимум температуры воздуха на высоте 2 м над землей.
Tmax - Максимальная температура - максимум температуры воздуха на высоте 2 м над землей.
R - Количество осадков - Количество выпавших осадков за период времени, мм. При наведении курсора мыши на число - период времени, за который выпало указанное количество осадков.
R24 - Количество осадков - Количество выпавших осадков за 24 часа, мм.
S - Снежный покров - Высота снежного покрова, см. При наведении курсора мыши на число - состояние снежного покрова и степень покрытия местности в баллах.